Location: Observatory
(52.1446°N, 0.4624°W)
Time: 03:29:23
(UTC+01:00)

ISS - Pass Details

Date: 24 May 2019
Orbit: 407 x 418 km, 51.6° (Epoch: 25 June)

Event Time Altitude Azimuth Distance (km) Brightness Sun altitude
Rises 23:56:58 0° 278° (W) 2,363 0.4 -16.0°
Reaches altitude 10° 23:59:04 10° 276° (W) 1,500 -0.7 -16.0°
Maximum altitude 00:02:25 70° 192° (SSW) 449 -3.9 -16.2°
Enters shadow 00:04:02 28° 114° (ESE) 825 -2.6 -16.2°
